星链-32903 (STARLINK-32903)

导读

STARLINK-32903是由美国SpaceX星链项目发射的低轨通信卫星,属于星链星座扩容卫星,于2025年2月23日发射入轨。该卫星承担全球宽带互联网覆盖任务,为偏远地区、移动载体等提供低延迟网络服务,进一步完善了星链星座的全球覆盖密度与通信容量。

Basic Information
目录编号:
63090
目录名称:
STARLINK-32903
国际标识:
2025-037P
轨道中心:
EARTH
卫星名称:
星链-32903
卫星全名:
星链-32903 (STARLINK-32903)
卫星状态:
在轨 (已飞行559 天)
发射日期:
2025-02-23 UTC
国别 :
美国 (US)
星等 :
--
Orbit Information
数据来源 国际轨道数据
星历时间: 2026-09-05T12:00:02+0800
6小时前
查看轨道信息
半长轴: 6885.782km
偏心率: 0.0004956
轨道倾角: 70.002°
近地点辐角 303.788°
升交点赤经 261.560°
平近点角 132.487°
近地点: 504.232km
远地点: 511.058km
周期: 94.774分钟
每日圈数: 15.194029
Detailed Information
固有亮度:
5
最大亮度:
2.5
卫星平台:
Starlink V1.0
覆盖范围:
全球
运营商:
太空探索技术公司
运营商所在国:
美国
制造商(研发单位):
太空探索技术公司
制造商所在国:
美国
使用方式:
暂无
Satellite Introduction
Starlink 计划是 SpaceX 推出的全球卫星互联网项目,通过发射低轨道卫星,为全球尤其是偏远地区提供高速、低延迟的互联网服务。自 2019 年起,Starlink 已部署数千颗卫星,旨在缩小全球数字鸿沟,推动互联网普及。该项目还为军事、航空等行业提供通信支持,带来广泛经济效益。
2D Orbit Map
3D Orbit Map
Orbit Altitude Analysis Chart
Orbit Inclination Analysis Chart
Orbit Comprehensive Analysis Chart
View Comprehensive Chart
Conjunction Data List
Event ID Objects TCA Miss Dist (km) Collision Risk Probability Collision Risk Index (CRI) Action
CDM_260907-191606-309006-775021
OBJECT E (67750)
2026-09-07T
19:16:25+0000
1.499 km
极远距离
6.30697E-6 低风险 0.51
CDM_260907-173902-051006-309021
OKEAN 2 (20510)
2026-09-07T
17:39:32+0000
1.858 km
极远距离
2.983279E-6 低风险 0.44
CDM_260905-125006-309006-845021
2026-09-05T
12:50:47+0000
2.220 km
极远距离
1.491042E-6 低风险 0.38
CDM_260907-151406-309006-726521
OBJECT T (67265)
2026-09-07T
15:14:24+0000
2.410 km
极远距离
1.402963E-6 低风险 0.38
CDM_260906-211606-024306-309021
2026-09-06T
21:16:03+0000
2.069 km
极远距离
9.886668E-7 极低风险 0.35
CDM_260830-111803-045006-309023
2026-08-30T
11:18:52+0000
2.787 km
极远距离
7.537819E-7 极低风险 0.33
CDM_260905-044406-309006-863521
CANVAS (68635)
2026-09-05T
04:44:01+0000
2.676 km
极远距离
7.405615E-7 极低风险 0.32